Location: Auckland
(36.8670°S, 174.7670°E)
Time: 14:15:02
(UTC+13:00)

Cosmos 1709 Rocket - Pass Details

Date: 24 January 2019
Orbit: 949 x 1001 km, 82.9° (Epoch: 19 February)

Event Time Altitude Azimuth Distance (km) Brightness Sun altitude
Exits shadow 23:15:14 57° 55° (NE) 1,158 4.0 -25.2°
Maximum altitude 23:16:00 61° 88° (E) 1,113 4.0 -25.3°
Drops below altitude 10° 23:22:11 10° 166° (SSE) 2,743 6.8 -26.0°
Sets 23:24:44 0° 169° (S) 3,690 7.7 -26.3°
